Location: Limerick
(52.6650°N, 8.6230°W)
Time: 15:37:51
(UTC+00:00)

ISS - Pass Details

Date: 23 January 2020
Orbit: 415 x 421 km, 51.6° (Epoch: 18 January)

Event Time Altitude Azimuth Distance (km) Brightness Sun altitude
Rises 18:09:13 0° 198° (SSW) 2,355 0.6 -9.9°
Reaches altitude 10° 18:12:10 10° 170° (S) 1,495 -0.9 -10.4°
Maximum altitude 18:13:48 13° 140° (SE) 1,323 -1.4 -10.6°
Enters shadow 18:15:21 10° 112° (ESE) 1,480 -1.4 -10.8°
